Location: Unspecified
(48.2082°N, 0.0000°E)
Time: 06:13:28
(UTC+00:00)

Altair - Visible Passes

Search period start: 13 August 2020 00:00
Search period end: 23 August 2020 00:00
Orbit: 1501 x 1682 km, 47.2° (Epoch: 12 August)

Date Brightness Start Highest point End Pass type
(mag) Time Alt. Az. Time Alt. Az. Time Alt. Az.
13 Aug 7.8 01:52:37 35° SSW 01:56:20 50° SSE 02:05:12 10° ENE visible
13 Aug 7.5 03:51:00 10° WSW 04:00:34 82° S 04:09:49 10° E visible
13 Aug 9.0 23:30:34 15° ESE 23:30:34 15° ESE 23:33:29 10° E visible
14 Aug 7.8 01:28:34 39° S 01:31:14 47° SE 01:40:03 10° ENE visible
14 Aug 7.5 03:26:33 13° WSW 03:35:23 81° S 03:44:40 10° E visible
14 Aug 9.2 23:06:29 12° ESE 23:06:29 12° ESE 23:07:50 10° E visible
15 Aug 7.8 01:04:28 42° S 01:06:08 45° SE 01:14:52 10° ENE visible
15 Aug 7.5 03:02:28 18° WSW 03:10:14 79° SSE 03:19:31 10° E visible
16 Aug 7.8 00:40:21 42° SSE 00:41:02 42° SE 00:49:41 10° ENE visible
16 Aug 7.4 02:38:20 23° WSW 02:45:04 77° SSE 02:54:22 10° E visible
17 Aug 7.9 00:16:12 40° SE 00:16:12 40° SE 00:24:29 10° ENE visible
17 Aug 7.4 02:14:11 28° WSW 02:19:54 75° SSE 02:29:13 10° E visible
17 Aug 7.5 04:15:01 10° W 04:24:35 84° S 04:33:50 10° ESE visible
17 Aug 8.1 23:52:01 36° SE 23:52:01 36° SE 23:59:17 10° ENE visible
18 Aug 7.4 01:50:00 35° WSW 01:54:44 73° SSE 02:04:04 10° E visible
18 Aug 7.5 03:49:48 10° W 03:59:25 85° S 04:08:42 10° E visible
18 Aug 8.2 23:27:48 32° ESE 23:27:48 32° ESE 23:34:04 10° ENE visible
19 Aug 7.4 01:25:47 42° SW 01:29:35 71° SSE 01:38:55 10° E visible
19 Aug 7.5 03:24:35 10° W 03:34:14 85° S 03:43:32 10° E visible
19 Aug 8.4 23:03:32 28° ESE 23:03:32 28° ESE 23:08:50 10° ENE visible
20 Aug 7.4 01:01:31 49° SW 01:04:26 69° SSE 01:13:46 10° ENE visible
20 Aug 7.4 02:59:29 10° W 03:09:03 86° S 03:18:23 10° E visible
20 Aug 8.6 22:39:13 24° ESE 22:39:13 24° ESE 22:43:35 10° E visible
21 Aug 7.4 00:37:12 55° SSW 00:39:16 66° SSE 00:48:37 10° ENE visible
21 Aug 7.4 02:35:10 14° W 02:43:53 86° S 02:53:14 10° E visible
21 Aug 8.7 22:14:51 21° E 22:14:51 21° E 22:18:18 10° E visible
22 Aug 7.4 00:12:49 59° S 00:14:08 64° SSE 00:23:28 10° ENE visible
22 Aug 7.4 02:10:47 17° W 02:18:42 86° S 02:28:05 10° E visible
22 Aug 7.5 04:13:50 10° WNW 04:23:17 68° SSW 04:32:24 10° ESE visible
22 Aug 8.8 21:50:22 18° E 21:50:22 18° E 21:53:01 10° E visible
22 Aug 7.4 23:48:19 60° S 23:48:59 61° SSE 23:58:19 10° ENE visible
